FW2000 Weather Reports


Display with metric or nautical units.
time (UTC)temp
F
wind
direction
speed
MPH
gust
MPH
rain 1hr
in
rain 24hr
in
rain mn
in
humidity
%
barometer
mb
20260507130535 55 90 3.0 7.0 0.00 0.00 0.00 83 1019.4
20260507130034 55 110 2.0 7.0 0.00 0.00 0.00 83 1019.4
20260507125535 55 96 2.0 7.0 0.00 0.00 0.00 83 1019.3
20260507125033 55 92 2.0 7.0 0.00 0.00 0.00 83 1019.3
20260507124534 55 103 1.0 6.0 0.00 0.00 0.00 83 1019.3
20260507124034 55 116 0.0 6.0 0.00 0.00 0.00 84 1019.2
20260507123534 55 103 2.0 8.0 0.00 0.00 0.00 84 1019.3
20260507123039 55 86 3.0 6.0 0.00 0.00 0.00 84 1019.3
20260507122534 55 111 2.0 6.0 0.00 0.00 0.00 84 1019.3
20260507122032 55 94 2.0 6.0 0.00 0.00 0.00 83 1019.3
20260507121531 55 90 2.0 5.0 0.00 0.00 0.00 83 1019.4
20260507121032 55 74 2.0 5.0 0.00 0.00 0.00 83 1019.4
20260507120531 55 94 2.0 5.0 0.00 0.00 0.00 84 1019.4
20260507120041 55 90 1.0 6.0 0.00 0.00 0.00 84 1019.4
20260507115530 55 108 1.0 4.0 0.00 0.00 0.00 84 1019.4
20260507115030 55 98 0.0 3.0 0.00 0.00 0.00 84 1019.4
20260507114529 56 97 1.0 3.0 0.00 0.00 0.00 84 1019.5
20260507114029 56 111 1.0 3.0 0.00 0.00 0.00 84 1019.5
20260507113528 56 103 0.0 6.0 0.00 0.00 0.00 84 1019.5
20260507113039 55 86 2.0 6.0 0.00 0.00 0.00 84 1019.5
20260507112528 55 74 2.0 8.0 0.00 0.00 0.00 85 1019.5
20260507112028 55 91 4.0 8.0 0.00 0.00 0.00 85 1019.5
20260507111528 55 79 3.0 6.0 0.00 0.00 0.00 85 1019.6
20260507111026 55 74 2.0 4.0 0.00 0.00 0.00 85 1019.5
20260507110528 55 94 0.0 4.0 0.00 0.00 0.00 85 1019.6
20260507110030 55 87 1.0 4.0 0.00 0.00 0.00 85 1019.7
20260507105525 55 83 2.0 4.0 0.00 0.00 0.00 85 1019.7
20260507105025 55 93 2.0 4.0 0.00 0.00 0.00 86 1019.7
20260507104525 55 95 2.0 6.0 0.00 0.00 0.00 86 1019.7
20260507104025 55 78 2.0 6.0 0.00 0.00 0.00 85 1019.7
20260507103524 55 79 3.0 5.0 0.00 0.00 0.00 85 1019.6
20260507103023 55 72 2.0 4.0 0.00 0.00 0.00 85 1019.7
20260507102523 56 78 2.0 4.0 0.00 0.00 0.00 85 1019.7
20260507102023 56 86 1.0 3.0 0.00 0.00 0.00 85 1019.7
20260507101523 56 88 1.0 4.0 0.00 0.00 0.00 85 1019.7
20260507101022 56 82 2.0 4.0 0.00 0.00 0.00 85 1019.8
20260507100522 56 94 2.0 6.0 0.00 0.00 0.00 85 1019.8
20260507100032 56 83 2.0 6.0 0.00 0.00 0.00 85 1019.7
20260507095521 56 84 2.0 4.0 0.00 0.00 0.00 85 1019.8
20260507095021 56 82 2.0 4.0 0.00 0.00 0.00 85 1019.8
20260507094520 56 82 0.0 2.0 0.00 0.00 0.00 85 1019.8
20260507094019 56 82 0.0 3.0 0.00 0.00 0.00 85 1019.8
20260507093522 56 81 1.0 4.0 0.00 0.00 0.00 85 1019.8
20260507093019 56 80 2.0 4.0 0.00 0.00 0.00 86 1019.9
20260507092518 56 80 2.0 5.0 0.00 0.00 0.00 86 1020.0
20260507092021 56 46 2.0 5.0 0.00 0.00 0.00 86 1019.9
20260507091521 56 84 3.0 5.0 0.00 0.00 0.00 86 1020.0
20260507091017 56 74 3.0 7.0 0.00 0.00 0.00 86 1020.0
20260507090516 56 84 3.0 7.0 0.00 0.00 0.00 86 1020.0
20260507090015 56 73 4.0 6.0 0.00 0.00 0.00 86 1020.1
20260507085514 56 81 2.0 8.0 0.00 0.00 0.00 86 1020.1
20260507085014 56 76 3.0 8.0 0.00 0.00 0.00 86 1020.1
20260507084513 56 90 3.0 7.0 0.00 0.00 0.00 86 1020.3
20260507084012 56 79 2.0 6.0 0.00 0.00 0.00 87 1020.3
20260507083512 56 88 3.0 6.0 0.00 0.00 0.00 87 1020.3
20260507083012 55 96 2.0 6.0 0.00 0.00 0.00 87 1020.2
20260507082517 55 92 2.0 5.0 0.00 0.00 0.00 87 1020.3
20260507082011 55 98 3.0 6.0 0.00 0.00 0.00 87 1020.3
20260507081511 55 107 2.0 6.0 0.00 0.00 0.00 87 1020.3
20260507081011 55 79 2.0 6.0 0.00 0.00 0.00 87 1020.3
20260507080511 55 97 2.0 6.0 0.00 0.00 0.00 87 1020.3
20260507080010 55 92 2.0 4.0 0.00 0.00 0.00 87 1020.4
20260507075509 55 86 2.0 6.0 0.00 0.00 0.00 86 1020.4
20260507075009 55 89 2.0 4.0 0.00 0.00 0.00 86 1020.4
20260507074511 55 94 1.0 4.0 0.00 0.00 0.00 86 1020.4
20260507074008 55 105 0.0 3.0 0.00 0.00 0.00 86 1020.5
20260507073508 56 105 0.0 4.0 0.00 0.00 0.00 86 1020.4
20260507073007 56 109 1.0 4.0 0.00 0.00 0.00 86 1020.5
20260507072507 56 93 1.0 4.0 0.00 0.00 0.00 86 1020.5
20260507072006 56 94 1.0 4.0 0.00 0.00 0.00 85 1020.5
20260507071506 56 92 1.0 3.0 0.00 0.00 0.00 85 1020.5
20260507071005 56 94 1.0 3.0 0.00 0.00 0.00 85 1020.5
20260507070506 56 94 0.0 3.0 0.00 0.00 0.00 85 1020.6
20260507070003 56 113 0.0 3.0 0.00 0.00 0.00 84 1020.5
20260507065505 56 113 1.0 3.0 0.00 0.00 0.00 84 1020.4
20260507065003 56 122 1.0 3.0 0.00 0.00 0.00 84 1020.5
20260507064503 56 123 0.0 2.0 0.00 0.00 0.00 84 1020.6
20260507064006 56 122 0.0 3.0 0.00 0.00 0.00 84 1020.6
20260507063502 56 123 0.0 4.0 0.00 0.00 0.00 84 1020.5
20260507063002 56 118 1.0 4.0 0.00 0.00 0.00 84 1020.5
20260507062501 56 107 0.0 2.0 0.00 0.00 0.00 84 1020.5
20260507062002 56 107 0.0 3.0 0.00 0.00 0.00 83 1020.6
20260507061502 56 107 0.0 3.0 0.00 0.00 0.00 83 1020.5
20260507061004 56 46 0.0 2.0 0.00 0.00 0.00 83 1020.6
20260507060503 57 275 0.0 2.0 0.00 0.00 0.00 83 1020.6
20260507060100 57 277 0.0 0.0 0.00 0.00 0.00 83 1020.6
20260507060002 57 277 0.0 0.0 0.00 0.00 0.00 83 1020.5
20260507055600 57 280 0.0 1.0 0.00 0.00 0.00 83 1020.5
20260507055100 57 282 0.0 1.0 0.00 0.00 0.00 83 1020.5
20260507054600 57 282 0.0 0.0 0.00 0.00 0.00 82 1020.5
20260507054105 57 282 0.0 0.0 0.00 0.00 0.00 82 1020.5
20260507053600 57 282 0.0 0.0 0.00 0.00 0.00 82 1020.6
20260507053101 57 282 0.0 0.0 0.00 0.00 0.00 82 1020.6
20260507052601 57 282 0.0 0.0 0.00 0.00 0.00 82 1020.5
20260507052100 57 282 0.0 0.0 0.00 0.00 0.00 82 1020.6
20260507051600 57 282 0.0 0.0 0.00 0.00 0.00 82 1020.6
20260507051102 57 282 0.0 0.0 0.00 0.00 0.00 81 1020.6
20260507050559 57 282 0.0 0.0 0.00 0.00 0.00 81 1020.7
20260507050100 57 282 0.0 0.0 0.00 0.00 0.00 81 1020.6
20260507045559 57 282 0.0 0.0 0.00 0.00 0.00 81 1020.7
20260507045059 57 282 0.0 0.0 0.00 0.00 0.00 81 1020.7
20260507044601 57 282 0.0 1.0 0.00 0.00 0.00 81 1020.7
20260507044058 57 282 0.0 4.0 0.00 0.00 0.00 81 1020.7
20260507043558 57 282 1.0 4.0 0.00 0.00 0.00 81 1020.7
20260507043058 57 249 0.0 0.0 0.00 0.00 0.00 81 1020.7
20260507042559 57 249 0.0 2.0 0.00 0.00 0.00 80 1020.7
20260507042101 58 249 0.0 2.0 0.00 0.00 0.00 80 1020.7
20260507041606 58 249 0.0 2.0 0.00 0.00 0.00 80 1020.7
20260507041058 58 249 0.0 2.0 0.00 0.00 0.00 80 1020.5
20260507040558 58 244 0.0 1.0 0.00 0.00 0.00 80 1020.5
20260507040106 58 244 0.0 2.0 0.00 0.00 0.00 79 1020.5
20260507035557 58 244 0.0 2.0 0.00 0.00 0.00 79 1020.4
20260507035058 58 242 0.0 3.0 0.00 0.00 0.00 79 1020.4
20260507034619 58 243 1.0 3.0 0.00 0.00 0.00 79 1020.2
20260507034057 59 240 1.0 4.0 0.00 0.00 0.00 79 1020.2
20260507033557 59 238 1.0 4.0 0.00 0.00 0.00 78 1020.2
20260507033106 59 261 2.0 3.0 0.00 0.00 0.00 78 1020.1
20260507032557 59 247 1.0 4.0 0.00 0.00 0.00 78 1020.1
20260507032056 59 243 2.0 4.0 0.00 0.00 0.00 78 1020.1
20260507031556 60 246 1.0 4.0 0.00 0.00 0.00 78 1020.0
20260507031057 60 246 2.0 4.0 0.00 0.00 0.00 77 1020.0
20260507030556 60 251 2.0 5.0 0.00 0.00 0.00 76 1019.9
20260507025555 61 242 2.0 4.0 0.00 0.00 0.00 75 1019.8
20260507025055 61 254 2.0 8.0 0.00 0.00 0.00 74 1019.9
20260507024603 62 236 3.0 8.0 0.00 0.00 0.00 74 1019.7
20260507024055 62 267 2.0 4.0 0.00 0.00 0.00 73 1019.7
20260507023554 63 267 1.0 4.0 0.00 0.00 0.00 73 1019.6
20260507023053 63 256 1.0 4.0 0.00 0.00 0.00 72 1019.6
20260507022553 63 239 1.0 4.0 0.00 0.00 0.00 72 1019.6
20260507022054 63 286 2.0 5.0 0.00 0.00 0.00 71 1019.5
20260507021601 64 286 2.0 5.0 0.00 0.00 0.00 71 1019.5
20260507021053 64 277 1.0 7.0 0.00 0.00 0.00 70 1019.5
20260507020553 64 236 2.0 7.0 0.00 0.00 0.00 68 1019.6
20260507020052 65 270 1.0 5.0 0.00 0.00 0.00 68 1019.4
20260507015551 65 244 2.0 5.0 0.00 0.00 0.00 68 1019.5
20260507015050 65 245 1.0 9.0 0.00 0.00 0.00 68 1019.6
20260507014552 65 279 2.0 9.0 0.00 0.00 0.00 68 1019.5
20260507014051 65 290 2.0 7.0 0.00 0.00 0.00 67 1019.5
20260507013549 65 271 2.0 9.0 0.00 0.00 0.00 67 1019.5
20260507013103 65 296 3.0 9.0 0.00 0.00 0.00 68 1019.5
20260507012550 66 233 3.0 7.0 0.00 0.00 0.00 67 1019.5
20260507012050 66 233 2.0 7.0 0.00 0.00 0.00 67 1019.5
20260507011550 66 205 2.0 4.0 0.00 0.00 0.00 65 1019.5
20260507011050 67 246 2.0 11.0 0.00 0.00 0.00 65 1019.5
20260507010549 67 277 3.0 11.0 0.00 0.00 0.00 65 1019.7
20260507010052 67 287 1.0 7.0 0.00 0.00 0.00 65 1019.6
20260507005551 67 234 3.0 7.0 0.00 0.00 0.00 65 1019.6
20260507005049 68 248 2.0 9.0 0.00 0.00 0.00 65 1019.6
20260507004548 68 286 3.0 9.0 0.00 0.00 0.00 63 1019.6
20260507004048 68 248 2.0 7.0 0.00 0.00 0.00 63 1019.6
20260507003548 68 271 2.0 8.0 0.00 0.00 0.00 63 1019.5
20260507003046 68 288 1.0 8.0 0.00 0.00 0.00 64 1019.5
20260507002546 68 278 3.0 9.0 0.00 0.00 0.00 63 1019.5
20260507002047 68 299 3.0 9.0 0.00 0.00 0.00 63 1019.6
20260507001606 68 289 3.0 8.0 0.00 0.00 0.00 64 1019.7
20260507001045 68 271 2.0 8.0 0.00 0.00 0.00 63 1019.5
20260507000545 67 271 3.0 7.0 0.00 0.00 0.00 65 1019.6
20260507000044 67 244 2.0 9.0 0.00 0.00 0.00 64 1019.6
20260506235543 68 233 3.0 9.0 0.00 0.00 0.00 62 1019.6
20260506235043 68 278 4.0 10.0 0.00 0.00 0.00 62 1019.7
20260506234552 68 292 3.0 10.0 0.00 0.00 0.00 63 1019.7
20260506234042 68 281 4.0 9.0 0.00 0.00 0.00 62 1019.8
20260506233542 69 293 4.0 9.0 0.00 0.00 0.00 61 1019.8
20260506233041 68 283 4.0 9.0 0.00 0.00 0.00 62 1019.8
20260506232540 68 246 2.0 9.0 0.00 0.00 0.00 63 1019.7
20260506232040 68 262 2.0 9.0 0.00 0.00 0.00 63 1019.7
20260506231539 68 286 5.0 9.0 0.00 0.00 0.00 62 1019.9
20260506231039 68 269 2.0 8.0 0.00 0.00 0.00 65 1019.8
20260506230538 68 263 3.0 10.0 0.00 0.00 0.00 63 1020.0
20260506230036 68 294 4.0 10.0 0.00 0.00 0.00 63 1020.0
20260506225536 68 240 4.0 8.0 0.00 0.00 0.00 64 1020.1
20260506225038 68 240 3.0 9.0 0.00 0.00 0.00 63 1020.1
20260506224542 68 296 3.0 9.0 0.00 0.00 0.00 63 1020.2
20260506224034 68 292 4.0 10.0 0.00 0.00 0.00 63 1020.2
20260506223534 67 243 3.0 11.0 0.00 0.00 0.00 64 1020.3
20260506223034 67 248 3.0 11.0 0.00 0.00 0.00 62 1020.4
20260506222536 68 298 3.0 8.0 0.00 0.00 0.00 63 1020.4
20260506222034 68 282 2.0 9.0 0.00 0.00 0.00 64 1020.4
20260506221532 68 288 5.0 9.0 0.00 0.00 0.00 64 1020.5
20260506221032 67 278 2.0 8.0 0.00 0.00 0.00 66 1020.5
20260506220530 67 236 2.0 8.0 0.00 0.00 0.00 69 1020.5
20260506220035 67 280 3.0 9.0 0.00 0.00 0.00 65 1020.6
20260506215529 67 271 3.0 8.0 0.00 0.00 0.00 64 1020.6
20260506215029 67 281 3.0 9.0 0.00 0.00 0.00 64 1020.8
20260506214528 67 300 3.0 9.0 0.00 0.00 0.00 64 1020.8
20260506214030 67 229 3.0 10.0 0.00 0.00 0.00 64 1020.9
20260506213527 66 280 4.0 11.0 0.00 0.00 0.00 65 1021.0
20260506213027 67 271 4.0 11.0 0.00 0.00 0.00 65 1021.0
20260506212527 66 319 3.0 8.0 0.00 0.00 0.00 65 1021.1
20260506212027 66 279 3.0 12.0 0.00 0.00 0.00 66 1021.0
20260506211526 66 271 3.0 9.0 0.00 0.00 0.00 64 1021.1
20260506211026 67 240 4.0 7.0 0.00 0.00 0.00 63 1021.1
20260506210525 66 236 2.0 7.0 0.00 0.00 0.00 68 1021.2
20260506210025 66 244 3.0 7.0 0.00 0.00 0.00 62 1021.2
20260506205523 67 257 3.0 8.0 0.00 0.00 0.00 65 1021.3
20260506205022 67 246 1.0 6.0 0.00 0.00 0.00 68 1021.3
20260506204523 66 211 2.0 8.0 0.00 0.00 0.00 65 1021.3
20260506204020 66 275 3.0 8.0 0.00 0.00 0.00 65 1021.3
20260506203520 65 248 2.0 8.0 0.00 0.00 0.00 67 1021.4
20260506203020 65 240 3.0 8.0 0.00 0.00 0.00 66 1021.4
20260506202523 66 231 2.0 5.0 0.00 0.00 0.00 69 1021.4
20260506202020 65 260 1.0 6.0 0.00 0.00 0.00 69 1021.5
20260506201520 65 290 3.0 7.0 0.00 0.00 0.00 65 1021.5
20260506201021 65 234 3.0 7.0 0.00 0.00 0.00 70 1021.6
20260506200519 65 303 3.0 9.0 0.00 0.00 0.00 65 1021.7
20260506200019 65 271 4.0 9.0 0.00 0.00 0.00 66 1021.6
20260506195518 66 288 2.0 9.0 0.00 0.00 0.00 70 1021.7
20260506195017 65 259 3.0 8.0 0.00 0.00 0.00 69 1021.8
20260506194526 65 259 1.0 7.0 0.00 0.00 0.00 68 1021.7
20260506194018 65 291 1.0 7.0 0.00 0.00 0.00 67 1021.8
20260506193516 65 208 3.0 7.0 0.00 0.00 0.00 68 1021.8
20260506193014 64 290 2.0 8.0 0.00 0.00 0.00 69 1022.0
20260506192514 64 216 3.0 8.0 0.00 0.00 0.00 66 1022.0
20260506192013 64 290 1.0 8.0 0.00 0.00 0.00 68 1022.1
20260506191513 63 200 2.0 8.0 0.00 0.00 0.00 65 1022.1
20260506191012 63 244 2.0 10.0 0.00 0.00 0.00 66 1022.1
20260506190512 63 223 3.0 10.0 0.00 0.00 0.00 67 1022.4
20260506190011 63 287 2.0 8.0 0.00 0.00 0.00 70 1022.3
20260506185510 63 214 3.0 8.0 0.00 0.00 0.00 70 1022.3
20260506185009 63 224 1.0 5.0 0.00 0.00 0.00 71 1022.3
20260506184509 63 216 3.0 9.0 0.00 0.00 0.00 68 1022.3
20260506184008 62 236 5.0 9.0 0.00 0.00 0.00 68 1022.2
20260506183508 62 217 1.0 7.0 0.00 0.00 0.00 70 1022.3
20260506183008 62 244 3.0 8.0 0.00 0.00 0.00 67 1022.2
20260506182506 62 289 2.0 8.0 0.00 0.00 0.00 65 1022.2
20260506182006 62 281 2.0 6.0 0.00 0.00 0.00 66 1022.4
20260506181506 62 209 2.0 6.0 0.00 0.00 0.00 64 1022.3
20260506181005 62 296 2.0 5.0 0.00 0.00 0.00 68 1022.2
20260506180505 62 269 2.0 5.0 0.00 0.00 0.00 68 1022.2
20260506180005 63 272 2.0 6.0 0.00 0.00 0.00 65 1022.2
20260506175505 63 291 1.0 6.0 0.00 0.00 0.00 65 1022.3
20260506175004 62 321 2.0 5.0 0.00 0.00 0.00 65 1022.3
20260506174502 62 239 0.0 3.0 0.00 0.00 0.00 67 1022.2
20260506174002 62 244 1.0 4.0 0.00 0.00 0.00 65 1022.2
20260506173504 62 301 1.0 4.0 0.00 0.00 0.00 68 1022.3
20260506173001 62 295 0.0 3.0 0.00 0.00 0.00 70 1022.2
20260506172600 62 290 1.0 3.0 0.00 0.00 0.00 68 1022.3
20260506172100 62 313 1.0 3.0 0.00 0.00 0.00 69 1022.2
20260506171608 62 19 0.0 3.0 0.00 0.00 0.00 67 1022.2
20260506171059 61 28 1.0 4.0 0.00 0.00 0.00 69 1022.2
20260506170558 62 38 2.0 5.0 0.00 0.00 0.00 66 1022.4
20260506170107 62 15 1.0 5.0 0.00 0.00 0.00 70 1022.4
20260506165558 61 25 1.0 3.0 0.00 0.01 0.00 72 1022.4
20260506165056 61 302 1.0 3.0 0.00 0.01 0.00 71 1022.4
20260506164553 60 59 0.0 4.0 0.00 0.01 0.00 71 1022.4
20260506164051 60 78 1.0 5.0 0.00 0.01 0.00 72 1022.4
20260506163550 60 14 1.0 5.0 0.00 0.01 0.00 74 1022.4
20260506163049 59 71 0.0 5.0 0.00 0.01 0.00 71 1022.4
20260506162547 59 81 1.0 6.0 0.00 0.01 0.00 75 1022.4
20260506162048 59 20 1.0 5.0 0.00 0.01 0.00 73 1022.3
20260506161546 59 77 1.0 5.0 0.00 0.01 0.00 74 1022.3
20260506161044 59 32 2.0 5.0 0.00 0.01 0.00 75 1022.4
20260506160543 58 29 2.0 4.0 0.00 0.01 0.00 75 1022.4
20260506160048 57 40 0.0 2.0 0.00 0.01 0.00 73 1022.4
20260506155540 58 17 0.0 4.0 0.00 0.01 0.00 75 1022.5
20260506155039 58 29 1.0 4.0 0.00 0.01 0.00 76 1022.5
20260506154538 57 28 2.0 4.0 0.00 0.01 0.00 76 1022.5
20260506154036 57 65 1.0 3.0 0.00 0.01 0.00 77 1022.5
20260506153535 56 60 0.0 4.0 0.00 0.01 0.00 75 1022.6
20260506153033 56 61 2.0 6.0 0.00 0.01 0.00 76 1022.5
20260506152532 56 74 1.0 7.0 0.00 0.01 0.00 77 1022.6
20260506152030 56 92 2.0 5.0 0.00 0.01 0.00 79 1022.6
20260506151530 55 60 1.0 5.0 0.00 0.01 0.00 75 1022.6
20260506151028 55 62 2.0 4.0 0.00 0.01 0.00 77 1022.7
20260506150527 55 62 2.0 4.0 0.00 0.01 0.00 79 1022.6
20260506150025 55 71 1.0 4.0 0.00 0.01 0.00 78 1022.6
20260506145522 54 98 2.0 4.0 0.00 0.02 0.00 79 1022.6
20260506145021 54 74 1.0 4.0 0.00 0.02 0.00 81 1022.7
20260506144519 53 53 1.0 4.0 0.00 0.02 0.00 81 1022.7
20260506144018 53 96 1.0 4.0 0.00 0.02 0.00 82 1022.7
20260506143517 53 38 1.0 4.0 0.00 0.02 0.00 83 1022.5
20260506143015 53 85 2.0 4.0 0.00 0.02 0.00 84 1022.5
20260506142513 52 63 1.0 4.0 0.00 0.02 0.00 85 1022.5
20260506142013 52 52 1.0 3.0 0.00 0.02 0.00 86 1022.3
20260506141511 51 82 1.0 3.0 0.00 0.02 0.00 88 1022.2
20260506141009 51 61 1.0 4.0 0.00 0.02 0.00 88 1022.2
20260506140508 51 71 1.0 3.0 0.00 0.02 0.00 88 1022.2
20260506140005 50 73 2.0 4.0 0.00 0.03 0.00 89 1022.1
20260506135504 50 72 1.0 4.0 0.00 0.03 0.00 89 1022.0
20260506135002 50 76 2.0 4.0 0.00 0.03 0.00 89 1022.0
20260506134502 49 74 1.0 4.0 0.00 0.03 0.00 90 1022.0
20260506134100 49 74 2.0 3.0 0.00 0.03 0.00 90 1021.9
20260506133559 49 74 1.0 4.0 0.00 0.03 0.00 89 1021.9
20260506133113 49 76 2.0 4.0 0.00 0.03 0.00 89 1021.9
20260506132557 49 77 2.0 4.0 0.00 0.03 0.00 89 1022.0
20260506132056 49 61 1.0 3.0 0.00 0.03 0.00 89 1021.9
20260506131603 49 54 2.0 4.0 0.00 0.03 0.00 89 1021.9
20260506131056 49 53 2.0 4.0 0.00 0.03 0.00 89 1021.9